Fremont, MI

6:05 AM EST on December 16, 2019 (GMT -0500)
Fremont

Weather History for KFFX - August, 2019

Change the Weather History Date:

Monday, August 26, 2019

  Actual Average (KMKG) Record (KMKG)
Temperature  
Mean Temperature 67 °F -  
Max Temperature 74 °F 78 °F 91 °F (1948)
Min Temperature 60 °F 60 °F 44 °F (1945)
Cooling Degree Days 2    
Growing Degree Days 17 (Base 50)    
Moisture  
Dew Point 58 °F    
Average Humidity 78    
Maximum Humidity 100    
Minimum Humidity 52    
Precipitation  
Precipitation 0.00 in - - ()
Sea Level Pressure  
Sea Level Pressure 29.88 in    
Wind  
Wind Speed 7 mph ()    
Max Wind Speed 20 mph    
Max Gust Speed 29 mph    
Visibility 9.3 miles    
Events Rain    
Averages and records for this station are not official NWS values.
T = Trace of Precipitation, MM = Missing Value Source: Averaged Metar Reports

Daily Weather History Graph

Daily Weather History Graph

Search for Another Location

Airport or City:

Astronomy

Aug. 26, 2019 Rise Set
Actual Time 7:00 AM EDT 8:29 PM EDT
Civil Twilight 6:31 AM EDT 8:59 PM EDT
Nautical Twilight 5:54 AM EDT 9:35 PM EDT
Astronomical Twilight 5:16 AM EDT 10:14 PM EDT
Moon 2:19 AM EDT (8/26) 5:59 PM EDT (8/26)
Length of Visible Light 14h 28m
Length of Day
13h 28m
Waning Crescent, 19% of the Moon is Illuminated
Aug 26
Waning Crescent
Aug 30
New
Sep 5
First Quarter
Sep 14
Full
Sep 21
Last Quarter

Hourly Weather History & Observations

Time (EDT) Temp. Dew Point Humidity Pressure Visibility Wind Dir Wind Speed Gust Speed Precip Events Conditions
12:15 AM 62.1 °F 53.1 °F 72% 30.06 in 10.0 mi ESE 4.6 mph - N/A   Scattered Clouds
12:35 AM 62.2 °F 53.2 °F 72% 30.06 in 10.0 mi ESE 5.8 mph - N/A   Mostly Cloudy
12:59 AM 62.1 °F 53.1 °F 72% 30.05 in 10.0 mi ESE 5.8 mph - N/A   Mostly Cloudy
1:17 AM 61.9 °F 53.1 °F 73% 30.05 in 10.0 mi ESE 4.6 mph - N/A   Scattered Clouds
1:35 AM 61.9 °F 53.1 °F 73% 30.05 in 10.0 mi ESE 5.8 mph - N/A   Scattered Clouds
1:36 AM 61.9 °F 53.1 °F 73% 30.05 in 10.0 mi ESE 5.8 mph - N/A   Scattered Clouds
1:55 AM 62.1 °F 52.7 °F 71% 30.04 in 10.0 mi ESE 6.9 mph - N/A   Mostly Cloudy
2:15 AM 62.6 °F 52.9 °F 70% 30.03 in 10.0 mi ESE 6.9 mph - N/A   Mostly Cloudy
2:38 AM 62.2 °F 52.9 °F 71% 30.03 in 10.0 mi ESE 6.9 mph - N/A   Scattered Clouds
2:55 AM 61.9 °F 53.1 °F 73% 30.03 in 10.0 mi ESE 5.8 mph - N/A   Clear
3:15 AM 61.7 °F 53.1 °F 73% 30.03 in 10.0 mi ESE 4.6 mph - N/A   Clear
3:16 AM 61.5 °F 53.1 °F 74% 30.03 in 10.0 mi East 4.6 mph - N/A   Clear
3:35 AM 60.8 °F 53.2 °F 76% 30.03 in 10.0 mi ESE 4.6 mph - N/A   Scattered Clouds
3:36 AM 60.8 °F 53.2 °F 76% 30.03 in 10.0 mi ESE 4.6 mph - N/A   Scattered Clouds
3:59 AM 61.0 °F 53.6 °F 77% 30.02 in 10.0 mi East 3.5 mph - N/A   Overcast
4:16 AM 60.8 °F 53.6 °F 77% 30.01 in 10.0 mi East 5.8 mph - N/A   Mostly Cloudy
4:35 AM 60.8 °F 53.8 °F 78% 30.00 in 10.0 mi East 5.8 mph - N/A   Scattered Clouds
4:55 AM 60.8 °F 53.8 °F 78% 30.00 in 10.0 mi East 5.8 mph - N/A   Clear
4:56 AM 60.8 °F 53.8 °F 78% 30.00 in 10.0 mi East 4.6 mph - N/A   Clear
5:15 AM 61.0 °F 53.6 °F 77% 30.00 in 10.0 mi East 5.8 mph - N/A   Clear
5:20 AM 61.0 °F 53.6 °F 77% 30.00 in 10.0 mi East 6.9 mph - N/A   Clear
5:38 AM 60.8 °F 53.4 °F 77% 29.99 in 10.0 mi East 4.6 mph - N/A   Clear
5:56 AM 60.8 °F 53.2 °F 76% 29.99 in 10.0 mi East 5.8 mph - N/A   Clear
6:15 AM 60.8 °F 53.1 °F 76% 29.99 in 10.0 mi ESE 6.9 mph - N/A   Clear
6:16 AM 60.8 °F 52.9 °F 75% 29.99 in 10.0 mi ESE 6.9 mph - N/A   Clear
6:35 AM 60.8 °F 52.9 °F 75% 29.99 in 10.0 mi ESE 6.9 mph - N/A   Clear
6:36 AM 60.8 °F 52.9 °F 75% 29.99 in 10.0 mi East 5.8 mph - N/A   Clear
6:59 AM 60.8 °F 52.9 °F 75% 29.99 in 10.0 mi ESE 6.9 mph - N/A   Clear
7:17 AM 60.6 °F 52.9 °F 76% 29.99 in 10.0 mi East 5.8 mph - N/A   Clear
7:55 AM 61.5 °F 52.9 °F 73% 29.99 in 10.0 mi ESE 6.9 mph - N/A   Clear
8:15 AM 61.7 °F 53.1 °F 73% 29.98 in 10.0 mi East 5.8 mph - N/A   Clear
8:38 AM 62.6 °F 53.2 °F 71% 29.97 in 10.0 mi ESE 6.9 mph - N/A   Clear
8:56 AM 63.1 °F 53.2 °F 70% 29.97 in 10.0 mi East 6.9 mph - N/A   Scattered Clouds
9:15 AM 64.4 °F 53.6 °F 68% 29.95 in 10.0 mi East 6.9 mph - N/A   Scattered Clouds
9:35 AM 65.7 °F 54.1 °F 66% 29.95 in 10.0 mi East 5.8 mph - N/A   Mostly Cloudy
9:59 AM 65.7 °F 54.0 °F 66% 29.94 in 10.0 mi ESE 5.8 mph - N/A   Overcast
10:17 AM 67.1 °F 54.5 °F 64% 29.94 in 10.0 mi ESE 10.4 mph - N/A   Scattered Clouds
10:35 AM 68.2 °F 54.7 °F 62% 29.93 in 10.0 mi ESE 9.2 mph - N/A   Scattered Clouds
10:36 AM 68.2 °F 54.7 °F 62% 29.93 in 10.0 mi ESE 9.2 mph - N/A   Scattered Clouds
10:55 AM 69.3 °F 54.5 °F 59% 29.92 in 10.0 mi ESE 9.2 mph - N/A   Scattered Clouds
11:15 AM 68.7 °F 55.0 °F 62% 29.91 in 10.0 mi ESE 9.2 mph 16.1 mph N/A Rain Light Rain
11:43 AM 69.8 °F 57.2 °F 64% 29.91 in 10.0 mi ESE 8.1 mph - N/A   Light Drizzle
12:04 PM 68.0 °F 57.2 °F 68% 29.89 in 10.0 mi East 8.1 mph 16.1 mph N/A Rain Rain
12:24 PM 69.8 °F 59.0 °F 68% 29.89 in 10.0 mi ESE 9.2 mph - N/A Rain Light Rain
12:43 PM 69.8 °F 57.2 °F 64% 29.88 in 10.0 mi ESE 10.4 mph 16.1 mph N/A   Overcast
1:04 PM 71.6 °F 55.4 °F 57% 29.87 in 10.0 mi ESE 11.5 mph 25.3 mph N/A   Overcast
1:23 PM 73.4 °F 57.2 °F 57% 29.85 in 10.0 mi East 15.0 mph 20.7 mph N/A   Overcast
1:32 PM 73.6 °F 56.3 °F 55% 29.85 in 10.0 mi SE 15.0 mph 21.9 mph N/A   Overcast
1:37 PM 73.4 °F 56.3 °F 55% 29.85 in 10.0 mi SE 11.5 mph - N/A   Overcast
1:55 PM 73.8 °F 55.9 °F 54% 29.85 in 10.0 mi SE 15.0 mph 24.2 mph N/A   Overcast
2:15 PM 74.7 °F 56.1 °F 52% 29.84 in 10.0 mi SE 16.1 mph 23.0 mph N/A   Overcast
2:39 PM 73.4 °F 56.8 °F 56% 29.84 in 10.0 mi SE 19.6 mph 28.8 mph N/A   Overcast
2:57 PM 73.0 °F 57.2 °F 57% 29.83 in 10.0 mi SE 12.7 mph 23.0 mph N/A   Overcast
3:15 PM 73.8 °F 57.6 °F 57% 29.81 in 10.0 mi ESE 13.8 mph 24.2 mph N/A   Overcast
3:35 PM 73.0 °F 58.3 °F 60% 29.81 in 10.0 mi SE 15.0 mph 23.0 mph N/A   Overcast
3:36 PM 73.0 °F 58.3 °F 60% 29.81 in 10.0 mi SE 18.4 mph 23.0 mph N/A   Overcast
3:55 PM 73.6 °F 59.0 °F 60% 29.80 in 10.0 mi SE 11.5 mph 24.2 mph N/A   Overcast
4:18 PM 72.5 °F 59.5 °F 64% 29.79 in 10.0 mi SE 11.5 mph 23.0 mph N/A   Overcast
4:36 PM 70.7 °F 61.0 °F 71% 29.79 in 7.0 mi SSE 12.7 mph 24.2 mph N/A Rain Rain
4:55 PM 67.8 °F 63.1 °F 85% 29.79 in 5.0 mi SE 11.5 mph 20.7 mph N/A Rain Rain
5:15 PM 67.1 °F 66.2 °F 97% 29.78 in 10.0 mi SSE 8.1 mph - N/A   Overcast
5:39 PM 66.7 °F 66.2 °F 98% 29.78 in 10.0 mi SE 10.4 mph 19.6 mph N/A   Light Drizzle
5:57 PM 66.4 °F 66.2 °F 99% 29.77 in 5.0 mi SE 12.7 mph 20.7 mph N/A   Drizzle
6:15 PM 66.0 °F 65.8 °F 99% 29.76 in 5.0 mi SE 12.7 mph 18.4 mph N/A Rain Light Rain
6:35 PM 65.8 °F 65.8 °F 100% 29.76 in 10.0 mi SE 11.5 mph 20.7 mph N/A   Overcast
6:55 PM 65.5 °F 65.5 °F 100% 29.75 in 4.0 mi SE 8.1 mph - N/A Rain Heavy Rain
7:00 PM 65.3 °F 65.3 °F 100% 29.75 in 4.0 mi ESE 9.2 mph - N/A Rain Light Rain
7:18 PM 65.3 °F 65.3 °F 100% 29.74 in 10.0 mi ESE 8.1 mph - N/A   Overcast
7:35 PM 65.3 °F 65.3 °F 100% 29.73 in 10.0 mi SE 8.1 mph - N/A   Overcast
7:55 PM 65.5 °F 65.5 °F 100% 29.73 in 10.0 mi SE 10.4 mph 17.3 mph N/A   Overcast
7:56 PM 65.5 °F 65.5 °F 100% 29.73 in 10.0 mi ESE 10.4 mph 17.3 mph N/A   Overcast
8:15 PM 65.5 °F 65.5 °F 100% 29.73 in 10.0 mi SE 8.1 mph - N/A   Overcast
8:16 PM 65.7 °F 65.7 °F 100% 29.73 in 10.0 mi SE 6.9 mph - N/A   Overcast
8:57 PM 65.8 °F 65.8 °F 100% 29.72 in 10.0 mi SE 6.9 mph - N/A Rain Light Rain
9:15 PM 66.2 °F 66.2 °F 100% 29.71 in 10.0 mi SE 8.1 mph - N/A Rain Light Rain
9:35 PM 66.4 °F 66.4 °F 100% 29.71 in 10.0 mi SE 9.2 mph - N/A   Light Drizzle
9:55 PM 66.6 °F 66.6 °F 100% 29.70 in 10.0 mi SE 8.1 mph 17.3 mph N/A   Overcast
10:18 PM 66.9 °F 66.9 °F 100% 29.70 in 10.0 mi SE 8.1 mph - N/A Rain Rain
10:36 PM 67.1 °F 67.1 °F 100% 29.68 in 5.0 mi SE 9.2 mph - N/A Rain Rain
10:55 PM 67.1 °F 67.1 °F 100% 29.67 in 5.0 mi South 8.1 mph 20.7 mph N/A Rain Rain
10:56 PM 67.1 °F 67.1 °F 100% 29.67 in 5.0 mi South 6.9 mph 20.7 mph N/A Rain Rain
11:15 PM 67.5 °F 67.5 °F 100% 29.67 in 5.0 mi SSE 9.2 mph 16.1 mph N/A Rain Rain
11:16 PM 67.5 °F 67.5 °F 100% 29.67 in 5.0 mi SSE 8.1 mph 16.1 mph N/A Rain Rain
11:39 PM 68.0 °F 68.0 °F 100% 29.67 in 5.0 mi South 5.8 mph 16.1 mph N/A Rain Rain
11:57 PM 68.2 °F 68.2 °F 100% 29.67 in 10.0 mi SSW 6.9 mph - N/A Rain Light Rain